Location: Ames
(42.0350°N, 93.6200°W)
Time: 07:49:24
(UTC-05:00)

ISS - All Passes

Search period start: 19 October 2017 00:00
Search period end: 29 October 2017 00:00
Orbit: 401 x 408 km, 51.6° (Epoch: 19 October)

Date Brightness Start Highest point End Pass type
(mag) Time Alt. Az. Time Alt. Az. Time Alt. Az.
19 Oct - 10:48:54 10° SSW 10:51:53 35° SE 10:54:54 10° ENE daylight
19 Oct - 12:25:23 10° W 12:28:23 32° NNW 12:31:22 10° NE daylight
19 Oct - 14:03:30 10° NW 14:05:35 16° N 14:07:40 10° NE daylight
19 Oct - 15:40:26 10° NW 15:42:58 20° NNE 15:45:29 10° ENE daylight
19 Oct - 17:16:33 10° NW 17:19:50 81° NE 17:23:06 10° ESE daylight
19 Oct - 18:54:33 10° WSW 18:55:52 12° SW 18:57:11 10° SSW visible
20 Oct - 09:57:23 10° S 09:59:45 19° SE 10:02:08 10° E daylight
20 Oct - 11:32:47 10° WSW 11:35:58 52° NNW 11:39:10 10° NE daylight
20 Oct - 13:10:43 10° NW 13:13:00 17° N 13:15:17 10° NNE daylight
20 Oct - 14:48:10 10° NNW 14:50:24 17° N 14:52:38 10° NE daylight
20 Oct - 16:24:18 10° NW 16:27:29 46° NNE 16:30:39 10° ESE daylight
20 Oct - 18:01:09 10° W 18:03:46 22° SW 18:06:23 10° S daylight
21 Oct - 10:40:23 10° SW 10:43:38 87° SE 10:46:54 10° NE daylight
21 Oct - 12:17:51 10° WNW 12:20:26 21° NNW 12:23:03 10° NE daylight
21 Oct - 13:55:45 10° NW 13:57:48 15° N 13:59:51 10° NE daylight
21 Oct - 15:32:06 10° NW 15:35:03 30° NNE 15:37:59 10° E daylight
21 Oct - 17:08:28 10° WNW 17:11:36 42° SW 17:14:42 10° SSE daylight
22 Oct - 09:48:15 10° SSW 09:51:21 44° SE 09:54:29 10° ENE daylight
22 Oct - 11:25:02 10° W 11:27:56 29° NNW 11:30:50 10° NE daylight
22 Oct - 13:03:09 10° NW 13:05:10 15° N 13:07:13 10° NE daylight
22 Oct - 14:39:54 10° NW 14:42:32 22° NNE 14:45:10 10° ENE daylight
22 Oct - 16:16:02 10° WNW 16:19:19 82° SW 16:22:35 10° SE daylight
23 Oct - 08:56:30 10° S 08:59:09 23° SE 09:01:49 10° E daylight
23 Oct - 10:32:20 10° WSW 10:35:27 43° NNW 10:38:36 10° NE daylight
23 Oct - 12:10:21 10° NW 12:12:33 17° N 12:14:45 10° NNE daylight
23 Oct - 13:47:38 10° NNW 13:49:57 18° NNE 13:52:16 10° ENE daylight
23 Oct - 15:23:44 10° NW 15:26:58 55° NNE 15:30:10 10° ESE daylight
23 Oct - 17:00:51 10° W 17:03:10 18° SW 17:05:28 10° S daylight
24 Oct - 08:05:32 10° SSE 08:07:00 13° SE 08:08:29 10° ESE daylight
24 Oct - 09:39:49 10° WSW 09:43:03 77° NW 09:46:19 10° NE daylight
24 Oct - 11:17:28 10° WNW 11:19:57 20° NNW 11:22:26 10° NE daylight
24 Oct - 12:55:14 10° NW 12:57:19 16° N 12:59:24 10° NE daylight
24 Oct - 14:31:29 10° NW 14:34:31 34° NNE 14:37:32 10° E daylight
24 Oct - 16:07:59 10° WNW 16:10:58 33° SW 16:13:57 10° SSE daylight
25 Oct - 08:47:32 10° SW 08:50:43 56° SE 08:53:55 10° ENE daylight
25 Oct - 10:24:35 10° W 10:27:22 25° NNW 10:30:10 10° NE daylight
25 Oct - 12:02:40 10° NW 12:04:40 15° N 12:06:40 10° NE daylight
25 Oct - 13:39:15 10° NW 13:41:59 24° NNE 13:44:43 10° ENE daylight
25 Oct - 15:15:27 10° WNW 15:18:41 65° SW 15:21:55 10° SE daylight
26 Oct - 07:55:36 10° SSW 07:58:27 29° SE 08:01:19 10° ENE daylight
26 Oct - 09:31:47 10° W 09:34:51 37° NNW 09:37:55 10° NE daylight
26 Oct - 11:09:53 10° NW 11:12:00 16° N 11:14:07 10° NE daylight
26 Oct - 12:46:57 10° NW 12:49:23 19° NNE 12:51:48 10° ENE daylight
26 Oct - 14:23:04 10° NW 14:26:19 67° NNE 14:29:34 10° ESE daylight
26 Oct - 16:00:33 10° W 16:02:25 15° SW 16:04:18 10° SSW daylight
27 Oct - 07:04:14 10° S 07:06:15 16° SE 07:08:17 10° E visible
27 Oct - 08:39:09 10° WSW 08:42:23 62° NNW 08:45:37 10° NE daylight
27 Oct - 10:16:58 10° WNW 10:19:20 18° NNW 10:21:43 10° NE daylight
27 Oct - 11:54:35 10° NNW 11:56:43 16° N 11:58:53 10° NE daylight
27 Oct - 13:30:45 10° NW 13:33:51 39° NNE 13:36:57 10° E daylight
27 Oct - 15:07:24 10° WNW 15:10:13 27° SW 15:13:02 10° SSE daylight
28 Oct - 07:46:45 10° SW 07:49:59 71° SE 07:53:14 10° ENE daylight
28 Oct - 09:24:01 10° WNW 09:26:42 23° NNW 09:29:25 10° NE daylight
28 Oct - 11:02:01 10° NW 11:04:02 15° N 11:06:03 10° NE daylight
28 Oct - 12:38:28 10° NW 12:41:18 27° NNE 12:44:09 10° E daylight
28 Oct - 14:14:44 10° WNW 14:17:56 52° SW 14:21:07 10° SE daylight
